7 * 24
多渠道服务支持
MOLNIYA 1-80(闪电1-80)是独联体(CIS)继承苏联航天体系后,于1991年2月15日发射的军事通信卫星,隶属于“闪电1号”卫星系列。该卫星运行在近地点500千米、远地点40000千米的12小时周期闪电轨道,具备三轴稳定姿态控制,搭载通信转发器与对地观测载荷,可支持军事通信、气象观测等任务,设计寿命约1至3年,是冷战末期苏联-独联体战略通信卫星组网的重要成员。
俄罗斯(独联体)
(CIS)
| 数据来源 | 国际轨道数据 |
| 星历时间: | 2026-09-04T03:09:50+0800 轨道信息已过期8天 |
| 半长轴: | 26155km |
| 偏心率: | 0.6342905 |
| 轨道倾角: | 64.891° |
| 近地点辐角 | 254.607° |
| 升交点赤经 | 188.500° |
| 平近点角 | 31.161° |
| 近地点: | 3186.994km |
| 远地点: | 36366.732km |
| 周期: | 701.604分钟 |
| 每日圈数: | 2.052441 |